Regional Weather Roundup
Issued by NWS

Home | Current Version | Previous Version | Graphics & Text | Print | Product List | Glossary On
Versions: 1 2 3 4 5 6 7 8 9 10 11 12 13 14 15 16 17 18 19 20 21 22 23 24 25 26 27 28 29 30
000
ASUS45 KGTF 190310
RWRMT
MONTANA HOURLY WEATHER ROUNDUP
NATIONAL WEATHER SERVICE GREAT FALLS MT
900 PM MDT SAT APR 18 2015

NOTE: "FAIR" INDICATES FEW OR NO CLOUDS BELOW 12000 FEET WITH NO
SIGNIFICANT WEATHER AND/OR OBSTRUCTIONS TO VISIBILITY.

MTZ001>007-043-190400-
WEST OF THE DIVIDE

CITY           SKY/WX    TMP DP  RH WIND       PRES   REMARKS
KALISPELL      CLEAR     47  28  47 N9        30.11S
MISSOULA       CLEAR     56  22  26 N8        30.11R
BUTTE          CLEAR     41  25  53 E8        30.19R
DEER LODGE       N/A     37  27  65 N9        30.24R WCI  31
EUREKA           N/A     52  21  30 NE3         N/A
HAMILTON         N/A     57  23  26 N8        30.11R
LIBBY            N/A     52  27  37 CALM      30.13R
$$

MTZ008-052>055-190400-
SOUTHWEST MONTANA

CITY           SKY/WX    TMP DP  RH WIND       PRES   REMARKS
BOZEMAN        CLEAR     38  26  62 NW16      30.20R WCI  29
DILLON         CLEAR     42  26  53 E12G21    30.14R
$$

MTZ009-010-012-014-046-048-049-054-190400-
EAST SLOPES AND CENTRAL MONTANA

CITY           SKY/WX    TMP DP  RH WIND       PRES   REMARKS
CUT BANK       CLOUDY    41  27  57 N8        30.26R
GREAT FALLS    CLOUDY    42  29  59 CALM      30.26R
MALMSTROM AFB  MOCLDY    42  29  59 NW2       30.27R
HELENA         CLEAR     40  28  62 W8        30.25R
$$

MTZ011-013-016-021-045-047-050-051-190400-
NORTH CENTRAL MONTANA

CITY           SKY/WX    TMP DP  RH WIND       PRES   REMARKS
HAVRE          PTCLDY    42  19  39 NW7       30.23R
LEWISTOWN      PTCLDY    39  28  64 W9        30.23R
FORT BENTON      N/A     41  25  52 W7        30.26R
$$

MTZ017>020-022>042-056>058-061-062-190400-
EASTERN PLAINS

CITY           SKY/WX    TMP DP  RH WIND       PRES   REMARKS
BAKER          MOCLDY    49  28  44 NW21      30.05R
BILLINGS       PTCLDY    42  27  55 N10       30.21R
GLASGOW        CLEAR     47  17  30 NW17      30.12R
JORDAN           N/A     45  20  36 NW10      30.14R
LIVINGSTON     CLOUDY    43  27  53 VRB5      30.24R
MILES CITY     MOCLDY    47  28  47 NW13      30.11R
SIDNEY         PTCLDY    48  27  43 NW9       30.04R
WOLF POINT     MOCLDY    48  23  37 N10       30.09R
BIG TIMBER       N/A     41  25  52 NE3       30.25R
FORSYTH          N/A     48  21  34 NW13G20   30.15R
PLENTYWOOD       N/A     45  27  49 NW14      30.04R
POPLAR           N/A     45  25  45 NW7       30.08R
$$

REGIONAL REPORTS...DAKOTAS

CITY           SKY/WX    TMP DP  RH WIND       PRES   REMARKS
WILLISTON      MOCLDY    50  26  39 NW22G31   30.02R
MINOT          LGT RAIN  49  45  86 SW6       29.93R
DICKINSON      LGT RAIN  48  42  80 N7        29.97R
BEACH          CLOUDY    48  27  43 NW15G23   30.04R
CROSBY         FAIR      45  28  53 NW15G23   30.01R
WATFORD CITY   FAIR      48  27  43 NW14G20   29.99R
BISMARCK       CLOUDY    49  44  83 W7        29.93S
GRAND FORKS    CLOUDY    55  33  43 CALM      29.83F
FARGO          CLOUDY    65  31  28 SE14      29.83F
BUFFALO SD       N/A     48  40  73 N18       29.93R
RAPID CITY     LGT RAIN  45  44  97 NW17      29.96S
$$

REGIONAL REPORTS...WYOMING/IDAHO/WASHINGTON

CITY           SKY/WX    TMP DP  RH WIND       PRES   REMARKS
GILLETTE       CLOUDY    46  33  60 N18G25    30.07R
SHERIDAN       CLOUDY    43  34  70 NW17      30.20R
BUFFALO WY     MOCLDY    40  33  76 NW29G43   30.14R
CODY           CLOUDY    39  30  70 NW13      30.22R WCI  32
YELLOWSTONE LA   N/A     34  21  59 CALM      30.19R
IDAHO FALLS    CLEAR     56  23  27 N12       30.02R
SALMON         CLEAR     52  18  25 NE3       30.08R
BOISE          CLEAR     64  19  17 NW12      30.03R
SPOKANE        PTCLDY    59  20  22 N7        30.15S
$$

REGIONAL REPORTS...ALBERTA

CITY           SKY/WX    TMP DP  RH WIND       PRES   REMARKS
EDMONTON       CLEAR     43  18  36 NW5       30.25R
CALGARY        PTCLDY    39  16  38 NE7       30.26R
LETHBRIDGE     PTCLDY    45  21  39 CALM      30.26R
MEDICINE HAT   PTCLDY    45  21  39 NW12      30.23R
$$

REGIONAL REPORTS...SASKATCHEWAN

CITY           SKY/WX    TMP DP  RH WIND       PRES   REMARKS
SWIFT CURRENT  MOCLDY    41  28  60 NW17G25   30.10R
REGINA         MOCLDY    45  30  57 NW14G22   30.01S
SASKATOON      MOCLDY    43  32  65 NW16G25   30.04R
$$



USA.gov is the U.S. government's official web portal to all federal, state and local government web resources and services.